Find Starlink 5628

NORAD ID: 55466 Int'l Des: 2023-015 Owner: SPXS Country: US Constellation: starlink operational
LEOCIRCULAR

实时位置

正在加载3D地球...

关于 Starlink 5628

正在加载描述...

即将过境

Passes for default location (London). Set your location on the main map for personalized predictions.

高度历史

Loading altitude history...

两行轨道根数

1 55466U 23015T 26121.47646418 -.00001087 00000-0 -29955-4 0 9991
2 55466 43.0065 30.7286 0002032 257.0631 102.9994 15.27593045178790
Epoch: May 1, 2026 • Age: 5 hours

当前状态

高度 482.2 km
速度 7.63 km/s
星下点 5.44°N, 90.6°E
发射日期 Feb 2, 2023
运行时间 3.2 years
类型 internet

技术详情

分类 Payload
质量 305.00 kg
干质量 290.00 kg
总质量 305.00 kg
长度 0.20 m
直径 2.80 m
跨度 9.00 m
形状 Box + pan
制造商 SPXS
平台类型 Starlink
阶段状态 In Orbit
所有者/国家 SPXS/US

Most Searched